N8351P KPAE-KEAT

Flight info

Callsign N8351P
Flight time 0h 47m
Altitude 11000
Route ZIRAN EAT
Aircraft PA24/L-SDGRY/S

Departure

Time 2026-05-05 04:38
Airport Seattle Paine Field International Airport (KPAE)

Arrival

Time 2026-05-05 05:25
Airport Pangborn Memorial Airport (KEAT)
Time Latitude Longitude Altitude Speed Heading
2026-05-05 04:10 47.90437 -122.27264 552 ft 0 kts 270°
2026-05-05 04:34 47.90450 -122.27288 562 ft 10 kts 352°
2026-05-05 04:34 47.90511 -122.27279 566 ft 6 kts 43°
2026-05-05 04:34 47.90518 -122.27236 562 ft 3 kts 45°
2026-05-05 04:34 47.90563 -122.27233 562 ft 9 kts 359°
2026-05-05 04:35 47.90628 -122.27234 561 ft 3 kts 15°
2026-05-05 04:35 47.90632 -122.27232 561 ft 0 kts 32°
2026-05-05 04:37 47.90639 -122.27209 562 ft 6 kts 88°
2026-05-05 04:37 47.90601 -122.27171 569 ft 21 kts 177°
2026-05-05 04:37 47.90180 -122.27177 600 ft 84 kts 176°
2026-05-05 04:37 47.89572 -122.27183 906 ft 89 kts 167°
2026-05-05 04:38 47.89118 -122.26592 1240 ft 93 kts 108°
2026-05-05 04:38 47.89022 -122.25647 1637 ft 90 kts 91°
2026-05-05 04:38 47.89055 -122.24715 1882 ft 95 kts 87°
2026-05-05 04:38 47.89134 -122.23751 2196 ft 94 kts 83°
2026-05-05 04:39 47.89222 -122.22758 2465 ft 96 kts 90°
2026-05-05 04:39 47.89125 -122.21791 2745 ft 95 kts 103°
2026-05-05 04:39 47.88996 -122.20819 3028 ft 95 kts 99°
2026-05-05 04:39 47.88948 -122.19822 3279 ft 98 kts 89°
2026-05-05 04:40 47.88973 -122.18807 3545 ft 98 kts 87°
2026-05-05 04:40 47.88974 -122.17776 3787 ft 100 kts 87°
2026-05-05 04:40 47.88851 -122.16747 4026 ft 103 kts 103°
2026-05-05 04:40 47.88643 -122.15740 4285 ft 102 kts 102°
2026-05-05 04:41 47.88453 -122.14711 4512 ft 103 kts 101°
2026-05-05 04:41 47.88219 -122.13694 4752 ft 105 kts 106°
2026-05-05 04:41 47.87950 -122.12676 4980 ft 106 kts 106°
2026-05-05 04:41 47.87656 -122.11666 5212 ft 107 kts 109°
2026-05-05 04:42 47.87333 -122.10664 5481 ft 106 kts 112°
2026-05-05 04:42 47.86979 -122.09697 5720 ft 108 kts 114°
2026-05-05 04:42 47.86638 -122.08719 5998 ft 107 kts 111°
2026-05-05 04:42 47.86303 -122.07719 6265 ft 107 kts 111°
2026-05-05 04:43 47.85955 -122.06733 6519 ft 109 kts 110°
2026-05-05 04:43 47.85642 -122.05721 6776 ft 107 kts 105°
2026-05-05 04:43 47.85343 -122.04706 7007 ft 107 kts 105°
2026-05-05 04:43 47.85117 -122.03680 7317 ft 98 kts 98°
2026-05-05 04:44 47.84929 -122.02681 7508 ft 104 kts 98°
2026-05-05 04:44 47.84745 -122.01657 7799 ft 99 kts 96°
2026-05-05 04:44 47.84620 -122.00624 7988 ft 104 kts 94°
2026-05-05 04:44 47.84489 -121.99597 8248 ft 101 kts 98°
2026-05-05 04:45 47.84290 -121.98568 8440 ft 104 kts 101°
2026-05-05 04:45 47.84047 -121.97576 8680 ft 103 kts 106°
2026-05-05 04:45 47.83771 -121.96579 8889 ft 103 kts 106°
2026-05-05 04:45 47.83524 -121.95599 9124 ft 102 kts 104°
2026-05-05 04:46 47.83262 -121.94607 9329 ft 102 kts 107°
2026-05-05 04:46 47.83016 -121.93623 9547 ft 102 kts 102°
2026-05-05 04:46 47.82801 -121.92614 9751 ft 101 kts 101°
2026-05-05 04:46 47.82603 -121.91624 9894 ft 103 kts 101°
2026-05-05 04:47 47.82398 -121.90601 10052 ft 102 kts 101°
2026-05-05 04:47 47.82192 -121.89584 10192 ft 104 kts 101°
2026-05-05 04:47 47.81992 -121.88558 10352 ft 102 kts 101°
2026-05-05 04:47 47.81785 -121.87533 10483 ft 105 kts 103°
2026-05-05 04:48 47.81516 -121.86524 10630 ft 105 kts 109°
2026-05-05 04:48 47.81188 -121.85543 10763 ft 107 kts 113°
2026-05-05 04:48 47.80929 -121.84517 10914 ft 106 kts 98°
2026-05-05 04:48 47.80756 -121.83437 11004 ft 111 kts 98°
2026-05-05 04:49 47.80553 -121.82288 11063 ft 116 kts 101°
2026-05-05 04:49 47.80354 -121.81070 11061 ft 126 kts 94°
2026-05-05 04:49 47.80340 -121.79737 11076 ft 130 kts 81°
2026-05-05 04:49 47.80494 -121.78351 11011 ft 137 kts 74°
2026-05-05 04:50 47.80706 -121.76949 11006 ft 139 kts 75°
2026-05-05 04:50 47.80715 -121.75526 11016 ft 141 kts 101°
2026-05-05 04:50 47.80423 -121.74117 11014 ft 144 kts 103°
2026-05-05 04:50 47.80129 -121.72680 11021 ft 147 kts 102°
2026-05-05 04:51 47.79841 -121.71211 11028 ft 149 kts 102°
2026-05-05 04:51 47.79554 -121.69741 11017 ft 149 kts 102°
2026-05-05 04:51 47.79266 -121.68254 11027 ft 151 kts 102°
2026-05-05 04:51 47.78974 -121.66750 11024 ft 152 kts 102°
2026-05-05 04:52 47.78683 -121.65250 11023 ft 153 kts 102°
2026-05-05 04:52 47.78387 -121.63723 11021 ft 155 kts 102°
2026-05-05 04:52 47.78088 -121.62186 11021 ft 155 kts 102°
2026-05-05 04:52 47.77786 -121.60649 11020 ft 155 kts 103°
2026-05-05 04:53 47.77481 -121.59101 11017 ft 156 kts 102°
2026-05-05 04:53 47.77186 -121.57553 11017 ft 156 kts 103°
2026-05-05 04:53 47.76881 -121.56003 11016 ft 156 kts 102°
2026-05-05 04:53 47.76576 -121.54459 11016 ft 155 kts 102°
2026-05-05 04:54 47.76277 -121.52915 11017 ft 155 kts 102°
2026-05-05 04:54 47.75975 -121.51382 11011 ft 155 kts 103°
2026-05-05 04:54 47.75672 -121.49875 11122 ft 146 kts 102°
2026-05-05 04:54 47.75399 -121.48469 11289 ft 140 kts 102°
2026-05-05 04:55 47.75124 -121.47066 11338 ft 142 kts 101°
2026-05-05 04:55 47.74854 -121.45682 11492 ft 137 kts 101°
2026-05-05 04:55 47.74589 -121.44326 11570 ft 137 kts 101°
2026-05-05 04:55 47.74321 -121.42958 11638 ft 137 kts 102°
2026-05-05 04:56 47.74056 -121.41620 11774 ft 133 kts 101°
2026-05-05 04:56 47.73799 -121.40314 11887 ft 132 kts 102°
2026-05-05 04:56 47.73542 -121.38996 11967 ft 134 kts 102°
2026-05-05 04:56 47.73270 -121.37654 12048 ft 137 kts 101°
2026-05-05 04:57 47.73005 -121.36285 12110 ft 138 kts 101°
2026-05-05 04:57 47.72732 -121.34916 12216 ft 138 kts 101°
2026-05-05 04:57 47.72463 -121.33561 12335 ft 137 kts 100°
2026-05-05 04:57 47.72196 -121.32199 12417 ft 137 kts 100°
2026-05-05 04:58 47.71933 -121.30844 12509 ft 137 kts 102°
2026-05-05 04:58 47.71666 -121.29508 12609 ft 136 kts 101°
2026-05-05 04:58 47.71402 -121.28171 12732 ft 134 kts 102°
2026-05-05 04:58 47.71139 -121.26848 12862 ft 133 kts 102°
2026-05-05 04:59 47.70872 -121.25514 12922 ft 137 kts 101°
2026-05-05 04:59 47.70596 -121.24142 12985 ft 141 kts 101°
2026-05-05 04:59 47.70320 -121.22719 12985 ft 147 kts 102°
2026-05-05 04:59 47.70017 -121.21235 12975 ft 152 kts 101°
2026-05-05 05:00 47.69722 -121.19725 12971 ft 152 kts 102°
2026-05-05 05:00 47.69417 -121.18201 12972 ft 155 kts 102°
2026-05-05 05:00 47.69108 -121.16664 12965 ft 156 kts 102°
2026-05-05 05:00 47.68802 -121.15122 12962 ft 157 kts 102°
2026-05-05 05:01 47.68500 -121.13574 12962 ft 156 kts 102°
2026-05-05 05:01 47.68189 -121.12031 12960 ft 157 kts 103°
2026-05-05 05:01 47.67870 -121.10495 12961 ft 155 kts 102°
2026-05-05 05:01 47.67573 -121.08954 12961 ft 156 kts 102°
2026-05-05 05:02 47.67257 -121.07398 12964 ft 158 kts 102°
2026-05-05 05:02 47.66940 -121.05834 12962 ft 158 kts 102°
2026-05-05 05:02 47.66628 -121.04264 12961 ft 158 kts 102°
2026-05-05 05:02 47.66316 -121.02705 12961 ft 158 kts 103°
2026-05-05 05:03 47.66001 -121.01143 12962 ft 157 kts 102°
2026-05-05 05:03 47.65689 -120.99607 12935 ft 155 kts 102°
2026-05-05 05:03 47.65384 -120.98070 12922 ft 155 kts 102°
2026-05-05 05:03 47.65072 -120.96532 12920 ft 156 kts 102°
2026-05-05 05:04 47.64766 -120.95013 12922 ft 155 kts 103°
2026-05-05 05:04 47.64461 -120.93483 12923 ft 155 kts 102°
2026-05-05 05:04 47.64149 -120.91941 12923 ft 157 kts 102°
2026-05-05 05:04 47.63835 -120.90384 12922 ft 158 kts 103°
2026-05-05 05:05 47.63521 -120.88826 12922 ft 158 kts 103°
2026-05-05 05:05 47.63201 -120.87274 12921 ft 157 kts 103°
2026-05-05 05:05 47.62889 -120.85734 12921 ft 155 kts 103°
2026-05-05 05:05 47.62581 -120.84207 12921 ft 155 kts 103°
2026-05-05 05:06 47.62270 -120.82684 12922 ft 154 kts 103°
2026-05-05 05:06 47.61961 -120.81158 12924 ft 155 kts 103°
2026-05-05 05:06 47.61649 -120.79620 12924 ft 157 kts 103°
2026-05-05 05:06 47.61343 -120.78113 12908 ft 157 kts 103°
2026-05-05 05:07 47.61027 -120.76562 12909 ft 158 kts 103°
2026-05-05 05:07 47.60714 -120.75000 12908 ft 158 kts 103°
2026-05-05 05:07 47.60386 -120.73439 12895 ft 159 kts 103°
2026-05-05 05:07 47.60068 -120.71864 12888 ft 160 kts 102°
2026-05-05 05:08 47.59744 -120.70276 12882 ft 161 kts 102°
2026-05-05 05:08 47.59420 -120.68684 12882 ft 162 kts 102°
2026-05-05 05:08 47.59093 -120.67094 12882 ft 161 kts 102°
2026-05-05 05:08 47.58771 -120.65512 12883 ft 161 kts 102°
2026-05-05 05:09 47.58446 -120.63926 12885 ft 161 kts 102°
2026-05-05 05:09 47.58122 -120.62345 12886 ft 161 kts 102°
2026-05-05 05:09 47.57798 -120.60763 12886 ft 160 kts 102°
2026-05-05 05:09 47.57474 -120.59179 12877 ft 161 kts 102°
2026-05-05 05:10 47.57149 -120.57589 12879 ft 162 kts 103°
2026-05-05 05:10 47.56932 -120.56535 12881 ft 161 kts 103°
2026-05-05 05:10 47.56499 -120.54447 12881 ft 160 kts 103°
2026-05-05 05:10 47.56176 -120.52883 12880 ft 158 kts 103°
2026-05-05 05:11 47.55859 -120.51341 12880 ft 157 kts 102°
2026-05-05 05:11 47.55538 -120.49801 12882 ft 157 kts 102°
2026-05-05 05:11 47.55324 -120.48760 12887 ft 157 kts 102°
2026-05-05 05:11 47.55014 -120.47241 12889 ft 154 kts 102°
2026-05-05 05:12 47.54700 -120.45715 12889 ft 155 kts 102°
2026-05-05 05:12 47.54387 -120.44212 12889 ft 154 kts 103°
2026-05-05 05:12 47.54072 -120.42697 12892 ft 155 kts 102°
2026-05-05 05:12 47.53563 -120.41304 12899 ft 156 kts 128°
2026-05-05 05:13 47.52798 -120.40131 12890 ft 157 kts 131°
2026-05-05 05:13 47.52030 -120.38960 12895 ft 160 kts 132°
2026-05-05 05:13 47.51245 -120.37785 12897 ft 161 kts 133°
2026-05-05 05:13 47.50454 -120.36603 12898 ft 162 kts 132°
2026-05-05 05:14 47.49665 -120.35416 12897 ft 161 kts 132°
2026-05-05 05:14 47.48876 -120.34230 12896 ft 162 kts 132°
2026-05-05 05:14 47.48083 -120.33035 12898 ft 163 kts 131°
2026-05-05 05:14 47.47293 -120.31834 12903 ft 163 kts 132°
2026-05-05 05:15 47.46496 -120.30640 12900 ft 163 kts 132°
2026-05-05 05:15 47.45700 -120.29443 12905 ft 164 kts 132°
2026-05-05 05:15 47.44901 -120.28237 12905 ft 164 kts 131°
2026-05-05 05:15 47.44099 -120.27025 12905 ft 165 kts 132°
2026-05-05 05:16 47.43293 -120.25815 12908 ft 166 kts 132°
2026-05-05 05:16 47.42486 -120.24589 12907 ft 167 kts 133°
2026-05-05 05:16 47.41694 -120.23402 12903 ft 167 kts 133°
2026-05-05 05:16 47.40894 -120.22205 12907 ft 167 kts 133°
2026-05-05 05:17 47.40078 -120.20983 12908 ft 167 kts 133°
2026-05-05 05:17 47.39252 -120.19741 12648 ft 182 kts 133°
2026-05-05 05:17 47.38369 -120.18404 12217 ft 181 kts 132°
2026-05-05 05:17 47.37705 -120.16808 11705 ft 185 kts 103°
2026-05-05 05:18 47.37695 -120.14960 11294 ft 177 kts 70°
2026-05-05 05:18 47.38279 -120.13501 11029 ft 162 kts 39°
2026-05-05 05:18 47.39233 -120.12729 10648 ft 156 kts
2026-05-05 05:18 47.40277 -120.12778 10284 ft 149 kts 342°
2026-05-05 05:19 47.41137 -120.13569 9897 ft 150 kts 310°
2026-05-05 05:19 47.41453 -120.15064 9313 ft 163 kts 269°
2026-05-05 05:19 47.40954 -120.16572 8863 ft 170 kts 229°
2026-05-05 05:19 47.39910 -120.17357 8417 ft 175 kts 198°
2026-05-05 05:20 47.38697 -120.17312 7769 ft 184 kts 156°
2026-05-05 05:20 47.37771 -120.16065 7362 ft 176 kts 116°
2026-05-05 05:20 47.37509 -120.14446 7109 ft 159 kts 80°
2026-05-05 05:20 47.37936 -120.12995 6665 ft 154 kts 43°
2026-05-05 05:21 47.38651 -120.11932 6404 ft 140 kts 54°
2026-05-05 05:21 47.38836 -120.10491 5841 ft 154 kts 94°
2026-05-05 05:21 47.38182 -120.09297 5492 ft 156 kts 155°
2026-05-05 05:21 47.37107 -120.09544 4871 ft 176 kts 213°
2026-05-05 05:22 47.36202 -120.10871 4258 ft 185 kts 226°
2026-05-05 05:22 47.35393 -120.12195 4164 ft 165 kts 233°
2026-05-05 05:22 47.34700 -120.13501 3855 ft 164 kts 246°
2026-05-05 05:22 47.34817 -120.15130 3038 ft 176 kts 315°
2026-05-05 05:23 47.35831 -120.15758 2962 ft 143 kts
2026-05-05 05:23 47.36697 -120.16106 2697 ft 133 kts 315°
2026-05-05 05:23 47.37334 -120.17080 2338 ft 128 kts 301°
2026-05-05 05:23 47.37911 -120.17929 1986 ft 107 kts 304°
2026-05-05 05:24 47.38433 -120.18611 1768 ft 92 kts 320°
2026-05-05 05:24 47.38879 -120.19243 1489 ft 85 kts 311°
2026-05-05 05:24 47.39278 -120.19835 1302 ft 74 kts 315°
2026-05-05 05:24 47.39602 -120.20300 1237 ft 56 kts 316°
2026-05-05 05:25 47.39815 -120.20610 1227 ft 30 kts 314°
2026-05-05 05:25 47.39930 -120.20776 1223 ft 17 kts 311°
2026-05-05 05:25 47.39987 -120.20869 1222 ft 8 kts 323°
2026-05-05 05:25 47.40043 -120.20952 1220 ft 16 kts 314°
2026-05-05 05:26 47.40103 -120.21038 1220 ft 7 kts 327°
2026-05-05 05:26 47.40183 -120.21140 1218 ft 17 kts 329°
2026-05-05 05:26 47.40252 -120.21165 1217 ft 11 kts 24°
2026-05-05 05:26 47.40297 -120.21107 1215 ft 13 kts 34°
2026-05-05 05:27 47.40307 -120.20948 1217 ft 11 kts 116°
2026-05-05 05:27 47.40304 -120.20938 1217 ft 0 kts 115°